Regional Weather Roundup
Issued by NWS

Home | Current Version | Previous Version | Graphics & Text | Print | Product List | Glossary On
Versions: 1 2 3 4 5 6 7 8 9 10 11 12 13 14 15 16 17 18 19 20 21 22 23 24 25 26 27 28 29 30 31 32 33 34 35 36 37 38 39 40 41 42 43 44 45 46 47 48 49 50
623
ASUS45 KPSR 281310
RWRAZ

ARIZONA HOURLY REGIONAL WEATHER ROUNDUP
NATIONAL WEATHER SERVICE PHOENIX AZ
600 AM MST SUN AUG 28 2016

NOTE: FAIR INDICATES FEW OR NO CLOUDS BELOW 12,000 FEET WITH NO
SIGNIFICANT WEATHER AND/OR OBSTRUCTIONS TO VISIBILITY.

AZZ001>003-036-281400-
NORTHWEST ARIZONA

CITY           SKY/WX    TMP DP  RH WIND       PRES   REMARKS
BULLHEAD CITY  CLEAR     73  63  68 CALM      29.95R
KINGMAN        CLEAR     59  54  83 CALM      30.12R
$$

AZZ004>008-015-016-018-281400-
NORTH CENTRAL ARIZONA

CITY           SKY/WX    TMP DP  RH WIND       PRES   REMARKS
GRAND CANYON   CLEAR     45  43  93 CALM      30.30R
PRESCOTT       PTCLDY    54  50  86 CALM      30.21R
FLAGSTAFF      CLOUDY    47  46  97 CALM      30.31R
PAYSON         MOCLDY    57  46  67 CALM      30.23R
PAGE           CLEAR     60  54  80 S5        30.18R
$$

AZZ009>014-017-281400-
NORTHEAST ARIZONA

CITY           SKY/WX    TMP DP  RH WIND       PRES   REMARKS
WINSLOW        MOCLDY    54  51  90 W7        30.23R
SAINT JOHNS    PTCLDY    50  48  93 CALM      30.25R
SHOW LOW       PTCLDY    46  45  93 CALM      30.30R
$$

AZZ023-281400-
GREATER PHOENIX AREA

CITY           SKY/WX    TMP DP  RH WIND       PRES   REMARKS
PHOENIX        PTCLDY    78  53  41 SE6       29.94R
BUCKEYE        CLEAR     72  43  35 CALM      29.96R
LUKE AFB       CLEAR     74  54  50 N6        29.94R
DEER VALLEY    CLEAR     74  51  44 NE6       29.95R
SCOTTSDALE     CLEAR     73  53  49 S3        29.97R
MESA-FALCON    PTCLDY   N/A N/A N/A NE10      29.84
MESA-GATEWAY   PTCLDY    70  45  40 E7        29.97R
CHANDLER       PTCLDY    73  52  46 CALM      29.96
$$

AZZ027-028-281400-
SOUTHWEST MARICOPA COUNTY AND PINAL COUNTY

CITY           SKY/WX    TMP DP  RH WIND       PRES   REMARKS
CASA GRANDE    CLEAR     70  39  32 CALM      29.99R
GILA BEND      FAIR      71  35  27 SE3       29.93R
$$

AZZ503-504-507>509-281400-
SOUTHEAST ARIZONA

CITY           SKY/WX    TMP DP  RH WIND       PRES   REMARKS
TUCSON         CLEAR     66  44  45 SE8       30.07R
DAVIS-MONTHAN  CLEAR     63  46  53 SE9       30.05R
RYAN FIELD     CLEAR     63  45  51 E3        30.06
NOGALES        CLEAR     56  41  57 CALM      30.13R
SIERRA VISTA   CLEAR     65  35  33 W9        30.18R
DOUGLAS        MOCLDY    60  45  57 N3        30.14R
SAFFORD        CLOUDY    67  46  47 CALM      30.07R
$$

AZZ020-021-025-026-031-281400-
SOUTHWEST ARIZONA

CITY           SKY/WX    TMP DP  RH WIND       PRES   REMARKS
YUMA           CLEAR     77  44  30 CALM      29.89R
$$

CAZ031-033-041-043-047-048-061-281400-
SOUTHERN CALIFORNIA

CITY           SKY/WX    TMP DP  RH WIND       PRES   REMARKS
DOWNTOWN L.A.  CLEAR     63  59  87 CALM      29.99R
L.A. AIRPORT   CLEAR     63  59  87 CALM      29.99S
SAN DIEGO      CLOUDY    69  61  75 N6        29.99S
BURBANK        CLEAR     63  58  83 W3        29.99S
ONTARIO        CLEAR     63  57  81 S3        30.00R
RIVERSIDE      CLEAR     63  57  81 CALM      30.01R
PALM SPRINGS   CLEAR     78  56  46 CALM      29.93R
EL CENTRO NAS  CLEAR     74  57  55 CALM      29.88R
IMPERIAL       CLEAR     78  57  48 SE6       29.86R
BLYTHE         CLEAR     75  50  41 N5        29.90R
NEEDLES        CLEAR     76  63  64 NE9       29.96R
$$

NVZ020-UTZ003-281400-
SOUTHERN NEVADA-UTAH

CITY           SKY/WX    TMP DP  RH WIND       PRES   REMARKS
LAS VEGAS      CLEAR     75  51  43 N6        30.02R
SALT LAKE CITY CLEAR     67  43  41 SE8       30.12R
$$

NMZ009-TXZ055-281400-
NEW MEXICO-WEST TEXAS

CITY           SKY/WX    TMP DP  RH WIND       PRES   REMARKS
ALBUQUERQUE    MOCLDY    57  51  80 N8        30.26R
EL PASO        PTCLDY    68  61  78 N3        30.14R
$$


........................KEY........................
SKY/WX - SKY CONDITION/WEATHER
TMP    - TEMPERATURE IN FAHRENHEIT
DP     - DEW POINT IN FAHRENHEIT
RH     - RELATIVE HUMIDITY IN PERCENT
WIND   - DIRECTION AND SPEED IN MILES PER HOUR (MPH)
VRB    - VARIABLE WIND DIRECTION
PRES   - MEAN SEA LEVEL PRESSURE IN INCHES OF MERCURY
         F - FALLING PRESSURE   R - RISING PRESSURE
         S - STEADY PRESSURE
VSB    - VISIBILITY IN MILES
HX     - HEAT INDEX IN FAHRENHEIT
WCI    - WIND CHILL INDEX IN FAHRENHEIT
TC     - TEMPERATURE IN CELSIUS WHICH IS ALSO KNOWN AS
         TEMPERATURE IN CENTIGRADE
AFB    - AIR FORCE BASE
         LUKE AFB IS LUKE AIR FORCE BASE
         DAVIS-MONTHAN IS DAVIS-MONTHAN AIR FORCE BASE
NAS    - NAVAL AIR STATION
         EL CENTRO NAS IS EL CENTRO NAVAL AIR STATION
N/A    - NOT AVAILABLE





USA.gov is the U.S. government's official web portal to all federal, state and local government web resources and services.